| time (UTC) | temp C | wind direction | speed KPH | gust KPH | rain 1hr cm | rain 24hr cm | rain mn cm | humidity % | barometer mb |
| 20260506094308 | 11 | 0.0 | 0.0 | 0.00 | 0.00 | 0.00 | 72 | 1016.3 | |
| 20260506093300 | 11 | 313 | 1.6 | 1.6 | 0.00 | 0.00 | 0.00 | 72 | 1016.3 |
| 20260506092252 | 11 | 30 | 4.8 | 4.8 | 0.00 | 0.00 | 0.00 | 73 | 1016.4 |
| 20260506091304 | 11 | 21 | 3.2 | 4.8 | 0.00 | 0.00 | 0.00 | 74 | 1016.3 |
| 20260506090238 | 11 | 11 | 3.2 | 3.2 | 0.00 | 0.00 | 0.00 | 74 | 1016.2 |
| 20260506085236 | 10 | 271 | 3.2 | 4.8 | 0.00 | 0.00 | 0.00 | 76 | 1016.5 |
| 20260506084254 | 10 | 31 | 3.2 | 6.4 | 0.00 | 0.00 | 0.00 | 77 | 1016.3 |
| 20260506083249 | 9 | 16 | 6.4 | 11.3 | 0.00 | 0.00 | 0.00 | 79 | 1016.4 |
| 20260506082220 | 10 | 329 | 4.8 | 6.4 | 0.00 | 0.00 | 0.00 | 78 | 1016.5 |
| 20260506081212 | 8 | 337 | 3.2 | 3.2 | 0.00 | 0.00 | 0.00 | 81 | 1016.5 |
| 20260506080204 | 8 | 321 | 4.8 | 9.7 | 0.00 | 0.00 | 0.00 | 81 | 1016.5 |
| 20260506073139 | 8 | 2 | 4.8 | 4.8 | 0.00 | 0.00 | 0.00 | 83 | 1016.3 |
| 20260506072137 | 7 | 100 | 3.2 | 3.2 | 0.00 | 0.00 | 0.00 | 84 | 1016.2 |
| 20260506071135 | 7 | 37 | 3.2 | 4.8 | 0.00 | 0.00 | 0.00 | 85 | 1016.1 |
| 20260506070152 | 7 | 30 | 4.8 | 9.7 | 0.00 | 0.00 | 0.00 | 86 | 1016.1 |
| 20260506062101 | 6 | 49 | 3.2 | 4.8 | 0.00 | 0.00 | 0.00 | 89 | 1016.2 |
| 20260506061113 | 6 | 9 | 3.2 | 4.8 | 0.00 | 0.00 | 0.00 | 91 | 1016.1 |
| 20260506051020 | 5 | 32 | 1.6 | 3.2 | 0.00 | 0.00 | 0.00 | 92 | 1015.7 |
| 20260506044521 | 5 | 40 | 1.6 | 1.6 | 0.00 | 0.00 | 0.00 | 91 | 1016.0 |
| 20260506043512 | 5 | 26 | 0.0 | 1.6 | 0.00 | 0.00 | 0.00 | 91 | 1015.7 |
| 20260506042444 | 5 | 41 | 1.6 | 3.2 | 0.00 | 0.00 | 0.00 | 90 | 1015.8 |
| 20260506041437 | 6 | 0.0 | 0.0 | 0.00 | 0.00 | 0.00 | 89 | 1015.8 | |
| 20260506040456 | 6 | 15 | 3.2 | 4.8 | 0.00 | 0.00 | 0.00 | 89 | 1015.7 |
| 20260506035454 | 6 | 6 | 1.6 | 1.6 | 0.00 | 0.00 | 0.00 | 88 | 1015.7 |
| 20260506034429 | 7 | 11 | 3.2 | 3.2 | 0.00 | 0.00 | 0.00 | 87 | 1015.7 |
| 20260506033421 | 7 | 0 | 1.6 | 3.2 | 0.00 | 0.00 | 0.00 | 87 | 1015.7 |
| 20260506032413 | 7 | 39 | 1.6 | 1.6 | 0.00 | 0.00 | 0.00 | 87 | 1015.8 |
| 20260506031425 | 7 | 351 | 3.2 | 4.8 | 0.00 | 0.00 | 0.00 | 87 | 1015.9 |
| 20260506030356 | 7 | 6 | 1.6 | 3.2 | 0.00 | 0.00 | 0.00 | 86 | 1016.1 |
| 20260506025341 | 7 | 7 | 1.6 | 1.6 | 0.00 | 0.00 | 0.00 | 86 | 1015.9 |
| 20260506024340 | 7 | 5 | 4.8 | 9.7 | 0.00 | 0.00 | 0.00 | 85 | 1016.1 |
| 20260506023337 | 8 | 333 | 3.2 | 3.2 | 0.00 | 0.00 | 0.00 | 84 | 1016.3 |
| 20260506022336 | 8 | 16 | 1.6 | 1.6 | 0.00 | 0.00 | 0.00 | 83 | 1016.2 |
| 20260506021332 | 8 | 31 | 0.0 | 1.6 | 0.00 | 0.00 | 0.00 | 83 | 1016.2 |
| 20260506020341 | 8 | 0.0 | 0.0 | 0.00 | 0.00 | 0.00 | 83 | 1016.4 | |
| 20260506015316 | 8 | 63 | 3.2 | 6.4 | 0.00 | 0.00 | 0.00 | 83 | 1016.4 |
| 20260506014308 | 8 | 35 | 1.6 | 3.2 | 0.00 | 0.00 | 0.00 | 84 | 1016.5 |
| 20260506013301 | 8 | 33 | 3.2 | 4.8 | 0.00 | 0.00 | 0.00 | 85 | 1016.3 |
| 20260506012250 | 8 | 33 | 1.6 | 1.6 | 0.00 | 0.00 | 0.00 | 85 | 1016.6 |
| 20260506011256 | 8 | 37 | 1.6 | 1.6 | 0.00 | 0.00 | 0.00 | 85 | 1016.4 |
| 20260506010234 | 8 | 355 | 1.6 | 3.2 | 0.00 | 0.00 | 0.00 | 86 | 1016.5 |
| 20260506005249 | 8 | 23 | 1.6 | 1.6 | 0.00 | 0.00 | 0.00 | 87 | 1016.5 |
| 20260506004221 | 8 | 355 | 1.6 | 1.6 | 0.00 | 0.00 | 0.00 | 87 | 1016.5 |
| 20260506003212 | 8 | 0.0 | 0.0 | 0.00 | 0.00 | 0.00 | 86 | 1016.5 | |
| 20260506002158 | 8 | 16 | 1.6 | 1.6 | 0.00 | 0.00 | 0.00 | 86 | 1016.6 |
| 20260506001256 | 8 | 336 | 1.6 | 1.6 | 0.00 | 0.00 | 0.00 | 86 | 1016.6 |
| 20260506000148 | 8 | 55 | 1.6 | 3.2 | 0.00 | 0.00 | 0.00 | 86 | 1016.7 |
| 20260505235140 | 8 | 346 | 1.6 | 1.6 | 0.00 | 0.00 | 0.00 | 86 | 1016.6 |
| 20260505234137 | 8 | 0.0 | 0.0 | 0.00 | 0.00 | 0.00 | 86 | 1016.7 | |
| 20260505233136 | 8 | 17 | 1.6 | 1.6 | 0.00 | 0.00 | 0.00 | 86 | 1016.9 |
| 20260505232133 | 8 | 343 | 1.6 | 1.6 | 0.00 | 0.00 | 0.00 | 86 | 1016.9 |
| 20260505231121 | 8 | 324 | 1.6 | 1.6 | 0.00 | 0.00 | 0.00 | 86 | 1016.8 |
| 20260505230116 | 8 | 12 | 0.0 | 1.6 | 0.00 | 0.00 | 0.00 | 86 | 1017.1 |
| 20260505225108 | 8 | 358 | 3.2 | 4.8 | 0.00 | 0.00 | 0.00 | 85 | 1016.9 |
| 20260505224100 | 9 | 36 | 1.6 | 1.6 | 0.00 | 0.00 | 0.00 | 85 | 1016.8 |
| 20260505223106 | 9 | 9 | 6.4 | 9.7 | 0.00 | 0.00 | 0.00 | 85 | 1017.0 |
| 20260505222044 | 9 | 359 | 0.0 | 1.6 | 0.00 | 0.00 | 0.00 | 85 | 1016.9 |
| 20260505221035 | 9 | 27 | 1.6 | 3.2 | 0.00 | 0.00 | 0.00 | 84 | 1016.9 |
| 20260505220029 | 9 | 337 | 4.8 | 6.4 | 0.00 | 0.00 | 0.00 | 84 | 1017.0 |
| 20260505215020 | 9 | 78 | 1.6 | 3.2 | 0.00 | 0.00 | 0.00 | 84 | 1016.9 |
| 20260505214012 | 10 | 29 | 4.8 | 6.4 | 0.00 | 0.00 | 0.00 | 84 | 1016.7 |
| 20260505213004 | 10 | 343 | 1.6 | 3.2 | 0.00 | 0.00 | 0.00 | 83 | 1016.6 |
| 20260505212014 | 10 | 342 | 4.8 | 12.9 | 0.00 | 0.00 | 0.00 | 83 | 1016.7 |
| 20260505210948 | 10 | 23 | 1.6 | 3.2 | 0.00 | 0.00 | 0.00 | 83 | 1016.7 |
| 20260505205956 | 10 | 326 | 3.2 | 3.2 | 0.00 | 0.00 | 0.00 | 82 | 1016.7 |
| 20260505204932 | 10 | 1 | 3.2 | 3.2 | 0.00 | 0.00 | 0.00 | 83 | 1016.6 |
| 20260505203944 | 10 | 18 | 1.6 | 3.2 | 0.00 | 0.00 | 0.00 | 88 | 1016.7 |
| 20260505202852 | 10 | 321 | 1.6 | 1.6 | 0.00 | 0.00 | 0.00 | 90 | 1016.4 |
| 20260505201850 | 10 | 358 | 1.6 | 3.2 | 0.00 | 0.00 | 0.00 | 90 | 1016.5 |
| 20260505200857 | 10 | 344 | 1.6 | 3.2 | 0.00 | 0.00 | 0.00 | 90 | 1016.4 |
| 20260505195835 | 10 | 0.0 | 0.0 | 0.00 | 0.00 | 0.00 | 89 | 1016.3 | |
| 20260505194828 | 10 | 47 | 1.6 | 1.6 | 0.00 | 0.00 | 0.00 | 88 | 1016.1 |
| 20260505193820 | 11 | 59 | 3.2 | 3.2 | 0.00 | 0.00 | 0.00 | 87 | 1016.2 |
| 20260505192833 | 11 | 347 | 1.6 | 1.6 | 0.00 | 0.00 | 0.00 | 85 | 1015.9 |
| 20260505191805 | 11 | 55 | 1.6 | 3.2 | 0.00 | 0.00 | 0.00 | 81 | 1015.8 |
| 20260505190753 | 12 | 357 | 1.6 | 1.6 | 0.00 | 0.00 | 0.00 | 79 | 1015.7 |
| 20260505185748 | 12 | 48 | 1.6 | 1.6 | 0.00 | 0.00 | 0.00 | 77 | 1015.7 |
| 20260505184740 | 12 | 24 | 3.2 | 3.2 | 0.00 | 0.00 | 0.00 | 72 | 1015.6 |
| 20260505183738 | 12 | 0.0 | 0.0 | 0.00 | 0.00 | 0.00 | 73 | 1015.5 | |
| 20260505182736 | 12 | 0.0 | 0.0 | 0.00 | 0.00 | 0.00 | 73 | 1015.4 | |
| 20260505181753 | 12 | 0.0 | 0.0 | 0.00 | 0.00 | 0.00 | 78 | 1015.3 | |
| 20260505180741 | 12 | 0.0 | 0.0 | 0.00 | 0.00 | 0.00 | 78 | 1015.2 | |
| 20260505175716 | 12 | 0.0 | 0.0 | 0.00 | 0.00 | 0.00 | 77 | 1015.2 | |
| 20260505174728 | 12 | 0.0 | 0.0 | 0.00 | 0.00 | 0.00 | 77 | 1015.2 | |
| 20260505173700 | 12 | 0.0 | 0.0 | 0.00 | 0.00 | 0.00 | 76 | 1015.2 | |
| 20260505172707 | 13 | 0.0 | 0.0 | 0.00 | 0.00 | 0.00 | 75 | 1015.3 | |
| 20260505171644 | 13 | 0.0 | 0.0 | 0.00 | 0.00 | 0.00 | 75 | 1015.2 | |
| 20260505170636 | 13 | 143 | 0.0 | 1.6 | 0.00 | 0.00 | 0.00 | 74 | 1015.3 |
| 20260505165634 | 13 | 0.0 | 0.0 | 0.00 | 0.00 | 0.00 | 73 | 1015.2 | |
| 20260505164455 | -17 | 0.0 | 0.0 | 0.00 | 0.00 | 0.00 | 1015.2 | ||
| 20260505163335 | 13 | 0.0 | 0.0 | 0.00 | 0.00 | 0.00 | 72 | 1015.3 | |
| 20260505162235 | 14 | 0.0 | 0.0 | 0.00 | 0.00 | 0.00 | 70 | 1015.2 | |
| 20260505161035 | 14 | 88 | 1.6 | 3.2 | 0.00 | 0.00 | 0.00 | 66 | 1015.4 |
| 20260505152836 | 15 | 130 | 1.6 | 3.2 | 0.00 | 0.00 | 0.00 | 64 | 1015.6 |
| 20260505151855 | 15 | 0.0 | 0.0 | 0.00 | 0.00 | 0.00 | 63 | 1015.3 | |
| 20260505150734 | 15 | 139 | 1.6 | 1.6 | 0.00 | 0.00 | 0.00 | 64 | 1015.5 |
| 20260505124549 | 18 | 47 | 0.0 | 1.6 | 0.00 | 0.03 | 0.00 | 49 | 1015.8 |
| 20260505123538 | 18 | 24 | 1.6 | 3.2 | 0.00 | 0.03 | 0.00 | 49 | 1015.8 |
| 20260505122535 | 18 | 12 | 1.6 | 1.6 | 0.00 | 0.03 | 0.00 | 48 | 1015.7 |
| 20260505121522 | 18 | 0.0 | 0.0 | 0.00 | 0.03 | 0.00 | 51 | 1015.7 | |
| 20260505120516 | 19 | 45 | 3.2 | 3.2 | 0.00 | 0.03 | 0.00 | 50 | 1015.9 |
| 20260505115508 | 18 | 0.0 | 0.0 | 0.00 | 0.03 | 0.00 | 52 | 1015.8 | |
| 20260505114434 | 17 | 345 | 1.6 | 4.8 | 0.00 | 0.03 | 0.00 | 55 | 1015.8 |
| 20260505113334 | 17 | 341 | 4.8 | 9.7 | 0.00 | 0.03 | 0.00 | 54 | 1016.0 |
| 20260505112308 | 16 | 346 | 1.6 | 1.6 | 0.00 | 0.03 | 0.00 | 55 | 1016.1 |
| 20260505111301 | 17 | 0.0 | 0.0 | 0.00 | 0.03 | 0.00 | 54 | 1016.0 | |
| 20260505110244 | 16 | 309 | 3.2 | 4.8 | 0.00 | 0.03 | 0.00 | 56 | 1016.3 |
| 20260505102221 | 17 | 4 | 6.4 | 9.7 | 0.00 | 0.03 | 0.00 | 54 | 1016.6 |
| 20260505101253 | 15 | 0.0 | 0.0 | 0.00 | 0.03 | 0.00 | 60 | 1016.6 | |
| 20260505100146 | 15 | 312 | 0.0 | 1.6 | 0.00 | 0.03 | 0.00 | 60 | 1016.6 |
| 20260505095138 | 16 | 25 | 1.6 | 3.2 | 0.00 | 0.03 | 0.00 | 57 | 1016.6 |